When you browse on this site, cookies collect data to enhance your experience and personalize the content and advertising you see.
Visit our Privacy Policy to learn more. By continuing to use the site, you agree to this use of cookies and data.
  • In Belgien
  • Länderverzeichnis
  • Für 7 Tage
  • Wassertemperatur
  • Satellitenkarten
  • Wetterkarte
  • Widgets
  • user-avatar
    Anmelden

    Stündliche Wetter Korfu

    Heute, 16 Dezember, Sonntag

    Zeit Temperatur Niederschläge Wind Luftdruck Luftfeuchtigkeit
    00:00 +10°C° 1.4 mm 8 m/S 755 mmHg 86%
    01:00 +10°C° 0 mm 6 m/S 755 mmHg 89%
    02:00 +10°C° 0.5 mm 7 m/S 755 mmHg 89%
    03:00 +9°C° 0.5 mm 7 m/S 756 mmHg 89%
    04:00 +9°C° 0.5 mm 8 m/S 756 mmHg 89%
    05:00 +9°C° 0 mm 8 m/S 756 mmHg 89%
    06:00 +8°C° 0 mm 9 m/S 756 mmHg 88%
    07:00 +9°C° 0 mm 8 m/S 756 mmHg 88%
    08:00 +9°C° 0 mm 8 m/S 757 mmHg 84%
    09:00 +10°C° 0 mm 9 m/S 757 mmHg 80%
    10:00 +10°C° 0 mm 9 m/S 757 mmHg 76%
    11:00 +11°C° 0 mm 9 m/S 757 mmHg 73%
    12:00 +11°C° 0 mm 9 m/S 757 mmHg 69%
    13:00 +11°C° 0 mm 9 m/S 757 mmHg 66%
    14:00 +10°C° 0 mm 9 m/S 758 mmHg 68%
    15:00 +8°C° 0 mm 9 m/S 758 mmHg 69%
    16:00 +8°C° 0 mm 9 m/S 758 mmHg 71%
    17:00 +7°C° 0 mm 8 m/S 758 mmHg 73%
    18:00 +6°C° 0 mm 8 m/S 759 mmHg 76%
    19:00 +5°C° 0 mm 7 m/S 759 mmHg 78%
    20:00 +5°C° 0 mm 7 m/S 759 mmHg 78%
    21:00 +5°C° 0 mm 6 m/S 760 mmHg 78%
    22:00 +4°C° 0 mm 6 m/S 760 mmHg 77%
    23:00 +5°C° 0 mm 5 m/S 760 mmHg 75%

    Morgen, 17 Dezember, Montag

    Zeit Temperatur Niederschläge Wind Luftdruck Luftfeuchtigkeit
    00:00 +6°C° 0 mm 5 m/S 760 mmHg 72%
    01:00 +6°C° 0 mm 4 m/S 760 mmHg 70%
    02:00 +6°C° 0 mm 4 m/S 760 mmHg 68%
    03:00 +7°C° 0 mm 3 m/S 759 mmHg 66%
    04:00 +7°C° 0 mm 2 m/S 759 mmHg 63%
    05:00 +7°C° 0 mm 2 m/S 759 mmHg 63%
    06:00 +7°C° 0 mm 2 m/S 759 mmHg 62%
    07:00 +8°C° 0 mm 2 m/S 759 mmHg 61%
    08:00 +8°C° 0 mm 3 m/S 758 mmHg 61%
    09:00 +8°C° 0 mm 4 m/S 758 mmHg 61%
    10:00 +8°C° 0 mm 5 m/S 758 mmHg 61%
    11:00 +8°C° 0.2 mm 6 m/S 757 mmHg 64%
    12:00 +8°C° 0.2 mm 7 m/S 757 mmHg 66%
    13:00 +8°C° 0.2 mm 7 m/S 756 mmHg 69%
    14:00 +8°C° 1.8 mm 7 m/S 756 mmHg 74%
    15:00 +8°C° 1.8 mm 7 m/S 755 mmHg 79%
    16:00 +8°C° 1.8 mm 7 m/S 754 mmHg 83%
    17:00 +8°C° 3.7 mm 6 m/S 754 mmHg 87%
    18:00 +8°C° 3.7 mm 6 m/S 754 mmHg 90%
    19:00 +8°C° 3.7 mm 5 m/S 754 mmHg 94%
    20:00 +8°C° 1.1 mm 5 m/S 754 mmHg 92%
    21:00 +8°C° 1.1 mm 5 m/S 754 mmHg 91%
    22:00 +8°C° 1.1 mm 4 m/S 754 mmHg 90%
    23:00 +8°C° 0.3 mm 4 m/S 754 mmHg 89%

    übermorgen, 18 Dezember, Dienstag

    Zeit Temperatur Niederschläge Wind Luftdruck Luftfeuchtigkeit
    00:00 +8°C° 0.3 mm 4 m/S 755 mmHg 87%
    01:00 +9°C° 0.3 mm 3 m/S 755 mmHg 86%
    02:00 +8°C° 0.4 mm 4 m/S 755 mmHg 86%
    03:00 +7°C° 0.4 mm 4 m/S 755 mmHg 85%
    04:00 +7°C° 0.4 mm 4 m/S 755 mmHg 85%
    05:00 +7°C° 0.4 mm 4 m/S 756 mmHg 85%
    06:00 +7°C° 0.4 mm 5 m/S 756 mmHg 84%
    07:00 +7°C° 0.4 mm 5 m/S 757 mmHg 84%
    08:00 +8°C° 0.1 mm 5 m/S 757 mmHg 82%
    09:00 +8°C° 0.1 mm 5 m/S 758 mmHg 79%
    10:00 +9°C° 0.1 mm 5 m/S 758 mmHg 76%
    11:00 +10°C° 0 mm 5 m/S 758 mmHg 72%
    12:00 +12°C° 0 mm 5 m/S 758 mmHg 69%
    13:00 +12°C° 0 mm 5 m/S 758 mmHg 65%
    14:00 +11°C° 0 mm 6 m/S 759 mmHg 68%
    15:00 +10°C° 0 mm 6 m/S 759 mmHg 71%
    16:00 +9°C° 0 mm 7 m/S 760 mmHg 74%
    17:00 +8°C° 0 mm 6 m/S 760 mmHg 76%
    18:00 +8°C° 0 mm 6 m/S 761 mmHg 77%
    19:00 +7°C° 0 mm 6 m/S 761 mmHg 78%
    20:00 +7°C° 0 mm 6 m/S 762 mmHg 78%
    21:00 +5°C° 0 mm 6 m/S 762 mmHg 77%
    22:00 +6°C° 0 mm 5 m/S 763 mmHg 77%
    23:00 +6°C° 0 mm 5 m/S 763 mmHg 76%

    19 Dezember, Mittwoch

    Zeit Temperatur Niederschläge Wind Luftdruck Luftfeuchtigkeit
    00:00 +6°C° 0 mm 5 m/S 763 mmHg 75%
    01:00 +6°C° 0 mm 5 m/S 763 mmHg 74%
    02:00 +6°C° 0 mm 5 m/S 763 mmHg 74%
    03:00 +6°C° 0 mm 4 m/S 763 mmHg 73%
    04:00 +5°C° 0 mm 4 m/S 763 mmHg 72%
    05:00 +5°C° 0 mm 4 m/S 764 mmHg 72%
    06:00 +5°C° 0 mm 4 m/S 764 mmHg 72%
    07:00 +5°C° 0 mm 4 m/S 764 mmHg 72%
    08:00 +8°C° 0 mm 3 m/S 765 mmHg 67%
    09:00 +10°C° 0 mm 3 m/S 765 mmHg 62%
    10:00 +13°C° 0 mm 2 m/S 765 mmHg 58%
    11:00 +13°C° 0 mm 2 m/S 765 mmHg 57%
    12:00 +14°C° 0 mm 2 m/S 764 mmHg 56%
    13:00 +15°C° 0 mm 2 m/S 764 mmHg 55%
    14:00 +14°C° 0 mm 2 m/S 764 mmHg 60%
    15:00 +13°C° 0 mm 2 m/S 764 mmHg 65%
    16:00 +10°C° 0 mm 2 m/S 764 mmHg 69%
    17:00 +11°C° 0 mm 1 m/S 765 mmHg 72%
    18:00 +10°C° 0 mm 1 m/S 765 mmHg 74%
    19:00 +10°C° 0 mm 1 m/S 765 mmHg 76%
    20:00 +9°C° 0 mm 1 m/S 765 mmHg 78%
    21:00 +9°C° 0 mm 1 m/S 765 mmHg 80%
    22:00 +9°C° 0 mm 1 m/S 765 mmHg 82%
    23:00 +9°C° 0 mm 1 m/S 765 mmHg 83%

    20 Dezember, Donnerstag

    Zeit Temperatur Niederschläge Wind Luftdruck Luftfeuchtigkeit
    00:00 +7°C° 0 mm 2 m/S 765 mmHg 83%
    01:00 +7°C° 0 mm 2 m/S 765 mmHg 84%
    02:00 +7°C° 0 mm 2 m/S 765 mmHg 83%
    03:00 +7°C° 0 mm 3 m/S 765 mmHg 83%
    04:00 +7°C° 0 mm 3 m/S 765 mmHg 82%
    05:00 +6°C° 0 mm 4 m/S 765 mmHg 81%
    06:00 +6°C° 0 mm 4 m/S 765 mmHg 80%
    07:00 +6°C° 0 mm 5 m/S 765 mmHg 79%
    08:00 +7°C° 0 mm 5 m/S 765 mmHg 77%
    09:00 +9°C° 0 mm 5 m/S 765 mmHg 75%
    10:00 +10°C° 0 mm 5 m/S 765 mmHg 72%
    11:00 +11°C° 0.1 mm 6 m/S 765 mmHg 73%
    12:00 +13°C° 0.1 mm 6 m/S 764 mmHg 73%
    13:00 +13°C° 0.1 mm 6 m/S 764 mmHg 74%
    14:00 +13°C° 0.1 mm 6 m/S 764 mmHg 78%
    15:00 +11°C° 0.1 mm 6 m/S 764 mmHg 82%
    16:00 +11°C° 0.1 mm 6 m/S 764 mmHg 87%
    17:00 +10°C° 0.1 mm 6 m/S 764 mmHg 88%
    18:00 +10°C° 0.1 mm 6 m/S 764 mmHg 89%
    19:00 +10°C° 0.1 mm 6 m/S 764 mmHg 90%
    20:00 +10°C° 0.3 mm 6 m/S 765 mmHg 89%
    21:00 +10°C° 0.3 mm 6 m/S 765 mmHg 89%
    22:00 +10°C° 0.3 mm 6 m/S 765 mmHg 88%
    23:00 +10°C° 0.4 mm 5 m/S 764 mmHg 89%

    21 Dezember, Freitag

    Zeit Temperatur Niederschläge Wind Luftdruck Luftfeuchtigkeit
    00:00 +10°C° 0.4 mm 5 m/S 764 mmHg 90%
    01:00 +10°C° 0.4 mm 5 m/S 764 mmHg 90%
    02:00 +11°C° 0.4 mm 4 m/S 764 mmHg 91%
    03:00 +11°C° 0.4 mm 4 m/S 764 mmHg 92%
    04:00 +11°C° 0.4 mm 4 m/S 764 mmHg 93%
    05:00 +10°C° 0.1 mm 4 m/S 764 mmHg 94%
    06:00 +10°C° 0.1 mm 3 m/S 764 mmHg 94%
    07:00 +10°C° 0.1 mm 3 m/S 764 mmHg 94%
    08:00 +11°C° 0 mm 3 m/S 765 mmHg 91%
    09:00 +12°C° 0 mm 3 m/S 765 mmHg 88%
    10:00 +13°C° 0 mm 3 m/S 765 mmHg 85%
    11:00 +13°C° 0.1 mm 3 m/S 765 mmHg 80%
    12:00 +14°C° 0.1 mm 4 m/S 765 mmHg 74%
    13:00 +15°C° 0.1 mm 5 m/S 765 mmHg 69%
    14:00 +14°C° 0 mm 5 m/S 765 mmHg 71%
    15:00 +13°C° 0 mm 5 m/S 765 mmHg 74%
    16:00 +11°C° 0 mm 6 m/S 765 mmHg 76%
    17:00 +12°C° 0 mm 5 m/S 766 mmHg 78%
    18:00 +10°C° 0 mm 5 m/S 766 mmHg 80%
    19:00 +9°C° 0 mm 5 m/S 766 mmHg 82%
    20:00 +9°C° 0 mm 5 m/S 766 mmHg 82%
    21:00 +8°C° 0 mm 4 m/S 766 mmHg 82%
    22:00 +8°C° 0 mm 4 m/S 766 mmHg 82%
    23:00 +8°C° 0 mm 4 m/S 766 mmHg 82%
    Mehr zeigen